GW1469 Weather Reports


time (UTC)temp
F
wind
direction
speed
knots
gust
knots
rain 1hr
in
rain 24hr
in
rain mn
in
humidity
%
barometer
mb
20260504184535 72 109 0.0 0.9 0.00 0.00 0.11 46 1023.3
20260504183943 72 80 2.6 5.2 0.00 0.00 0.11 48 1023.7
20260504183329 73 56 0.0 0.0 0.00 0.00 0.11 46 1023.7
20260504182741 72 116 0.9 1.7 0.00 0.00 0.11 48 1023.7
20260504182142 72 107 0.0 0.9 0.00 0.00 0.11 52 1023.7
20260504181512 70 73 0.9 0.9 0.00 0.00 0.11 51 1023.7
20260504180923 69 73 0.0 0.9 0.00 0.00 0.11 51 1023.7
20260504180320 71 49 1.7 2.6 0.00 0.00 0.11 51 1023.7
20260504175748 69 80 0.0 0.0 0.00 0.00 0.11 52 1023.7
20260504174534 68 117 1.7 1.7 0.00 0.00 0.11 54 1024.0
20260504173931 69 177 1.7 1.7 0.00 0.00 0.11 52 1024.3
20260504172713 68 310 1.7 1.7 0.00 0.00 0.11 54 1024.0
20260504172134 68 49 0.9 0.9 0.00 0.00 0.11 61 1024.3
20260504171554 67 93 1.7 1.7 0.00 0.00 0.11 60 1024.3
20260504170919 68 78 4.3 5.2 0.00 0.00 0.11 60 1024.3
20260504170335 68 146 0.9 0.9 0.00 0.00 0.11 60 1024.7
20260504160347 63 177 1.7 2.6 0.00 0.00 0.11 73 1025.3
20260504141236 50 99 0.0 0.0 0.00 0.00 0.11 99 1025.7
20260504140653 50 123 0.0 0.9 0.00 0.00 0.11 98 1026.0
20260504130633 44 92 0.0 0.0 0.00 0.00 0.05 97 1027.7
20260504110627 40 67 0.0 0.0 0.00 0.00 0.00 95 1025.3
20260504081814 42 67 0.0 0.0 0.00 0.00 0.00 91 1025.7
20260504081216 42 67 0.0 0.0 0.00 0.00 0.00 90 1025.7
20260504080626 42 67 0.0 0.0 0.00 0.00 0.00 90 1025.7
20260504045417 41 67 0.0 0.0 0.00 0.00 0.00 86 1026.7
20260504044831 41 67 0.0 0.0 0.00 0.00 0.00 86 1026.7
20260504044221 41 67 0.0 0.0 0.00 0.00 0.00 86 1026.7
20260504043642 41 67 0.0 0.0 0.00 0.00 0.00 85 1026.7
20260504043048 41 67 0.0 0.0 0.00 0.00 0.00 87 1026.4
20260504042431 41 67 0.0 0.0 0.00 0.00 0.00 87 1026.0
20260504041228 41 67 0.0 0.0 0.00 0.00 0.00 86 1026.4
20260504040644 41 67 0.0 0.0 0.00 0.00 0.00 85 1026.4
20260504040029 41 67 0.0 0.0 0.00 0.00 0.00 85 1026.0
20260504035428 41 67 0.0 0.0 0.00 0.00 0.00 84 1026.4
20260504034214 42 67 0.0 0.0 0.00 0.00 0.00 83 1026.0
20260504033612 42 67 0.0 0.0 0.00 0.00 0.00 83 1026.4
20260504033036 42 67 0.0 0.0 0.00 0.00 0.00 83 1026.4
20260504031244 43 67 0.0 0.0 0.00 0.00 0.00 79 1026.0
20260504030018 43 67 0.0 0.0 0.00 0.00 0.00 78 1026.0
20260504025413 44 67 0.0 0.0 0.00 0.00 0.00 76 1026.0
20260504024824 44 67 0.0 0.0 0.00 0.00 0.00 77 1026.0
20260504024220 44 67 0.0 0.0 0.00 0.00 0.00 75 1026.0
20260504023633 44 67 0.0 0.0 0.00 0.00 0.00 75 1026.0
20260504023027 45 67 0.0 0.0 0.00 0.00 0.00 73 1026.0
20260504022437 45 67 0.0 0.0 0.00 0.00 0.00 71 1026.0
20260504021834 45 67 0.0 0.0 0.00 0.00 0.00 72 1025.7
20260504020620 46 67 0.0 0.0 0.00 0.00 0.00 70 1026.0
20260504020020 46 67 0.0 0.0 0.00 0.00 0.00 69 1026.0
20260504015443 46 67 0.0 0.0 0.00 0.00 0.00 67 1025.7
20260504014826 47 67 0.0 0.0 0.00 0.00 0.00 66 1025.7
20260504014244 48 67 0.0 0.0 0.00 0.00 0.00 65 1025.7
20260504013650 48 67 0.0 0.0 0.00 0.00 0.00 63 1025.3
20260504012412 49 67 0.0 0.0 0.00 0.00 0.00 60 1025.7
20260504011837 49 67 0.0 0.0 0.00 0.00 0.00 60 1025.3
20260504011214 49 67 0.0 0.0 0.00 0.00 0.00 60 1025.3
20260504010635 50 67 0.0 0.0 0.00 0.00 0.00 56 1025.7
20260504010049 50 67 0.0 0.0 0.00 0.00 0.00 57 1025.3
20260504005438 51 67 0.0 0.0 0.00 0.00 0.00 56 1025.3
20260504004247 52 67 0.0 0.0 0.00 0.00 0.00 52 1025.3
20260504003614 53 67 0.0 0.0 0.00 0.00 0.00 50 1025.0
20260504003040 54 67 0.0 0.0 0.00 0.00 0.00 47 1025.3
20260504002436 55 67 0.0 0.0 0.00 0.00 0.00 46 1025.0
20260504001818 56 67 0.0 0.0 0.00 0.00 0.00 48 1025.0
20260504001219 57 67 0.0 0.0 0.00 0.00 0.00 43 1025.0
20260504000654 58 65 0.0 0.9 0.00 0.00 0.00 38 1025.0
20260504000042 58 72 0.0 0.0 0.00 0.00 0.00 37 1025.0
20260503235411 59 73 0.0 0.0 0.00 0.00 0.00 36 1024.7
20260503234815 59 73 0.0 0.0 0.00 0.00 0.00 36 1024.7
20260503234236 60 78 0.0 0.9 0.00 0.00 0.00 35 1024.7
20260503233627 60 69 0.0 0.0 0.00 0.00 0.00 36 1024.7
20260503233035 60 86 0.0 0.0 0.00 0.00 0.00 39 1025.0
20260503232447 60 96 0.0 0.0 0.00 0.00 0.00 38 1025.0
20260503231818 60 67 0.0 0.0 0.00 0.00 0.00 33 1024.7
20260503231252 61 76 0.0 0.0 0.00 0.00 0.00 42 1025.0
20260503230636 61 78 0.0 0.0 0.00 0.00 0.00 33 1025.0
20260503230041 62 70 0.9 1.7 0.00 0.00 0.00 33 1024.7
20260503224223 62 105 0.0 0.0 0.00 0.00 0.00 34 1025.0
20260503223614 63 95 0.0 0.0 0.00 0.00 0.00 33 1025.3
20260503223014 63 66 0.0 0.0 0.00 0.00 0.00 31 1025.3
20260503222422 63 158 1.7 1.7 0.00 0.00 0.00 31 1025.0
20260503221820 64 156 1.7 1.7 0.00 0.00 0.00 30 1025.0
20260503221224 64 136 0.9 0.9 0.00 0.00 0.00 28 1025.3
20260503220654 64 120 0.9 0.9 0.00 0.00 0.00 28 1025.0
20260503220044 65 92 0.0 0.9 0.00 0.00 0.00 28 1025.3
20260503215439 66 81 0.0 0.9 0.00 0.00 0.00 27 1025.3
20260503214810 66 74 0.0 0.0 0.00 0.00 0.00 27 1025.3
20260503214224 65 110 0.0 0.0 0.00 0.00 0.00 27 1025.3
20260503213647 64 159 0.9 0.9 0.00 0.00 0.00 29 1025.3
20260503212440 67 209 2.6 5.2 0.00 0.00 0.00 26 1025.3
20260503211827 65 91 0.0 0.9 0.00 0.00 0.00 24 1025.7
20260503211227 67 109 0.0 0.0 0.00 0.00 0.00 27 1025.7
20260503210647 66 89 0.0 0.0 0.00 0.00 0.00 28 1025.3
20260503210017 65 158 1.7 1.7 0.00 0.00 0.00 25 1025.7
20260503205430 66 150 1.7 2.6 0.00 0.00 0.00 24 1025.7
20260503204242 67 93 0.0 0.0 0.00 0.00 0.00 25 1025.7
20260503203038 65 98 1.7 1.7 0.00 0.00 0.00 26 1026.0
20260503202422 65 130 0.9 1.7 0.00 0.00 0.00 24 1026.0
20260503201816 64 62 1.7 2.6 0.00 0.00 0.00 25 1026.0
20260503201234 64 129 0.0 0.9 0.00 0.00 0.00 25 1026.4
20260503200625 65 282 1.7 2.6 0.00 0.00 0.00 24 1026.4
20260503200026 64 233 3.5 6.1 0.00 0.00 0.00 27 1026.4
20260503195409 65 156 2.6 2.6 0.00 0.00 0.00 26 1026.4
20260503194821 63 50 0.9 1.7 0.00 0.00 0.00 28 1026.7
20260503194241 64 146 2.6 3.5 0.00 0.00 0.00 27 1026.7
20260503193621 64 136 5.2 7.0 0.00 0.00 0.00 26 1027.0
20260503193043 62 106 0.0 0.9 0.00 0.00 0.00 29 1027.4
20260503192436 63 122 0.9 0.9 0.00 0.00 0.00 27 1027.4
20260503191842 63 215 4.3 5.2 0.00 0.00 0.00 29 1027.4
20260503191249 63 70 0.0 0.9 0.00 0.00 0.00 31 1027.4
20260503190636 63 160 1.7 1.7 0.00 0.00 0.00 27 1027.4
20260503190052 62 123 3.5 3.5 0.00 0.00 0.00 32 1027.7
20260503185423 62 99 0.0 0.0 0.00 0.00 0.00 30 1028.1
20260503184846 62 182 3.5 3.5 0.00 0.00 0.00 29 1027.7